Regional Weather Roundup
Issued by NWS State College, PA

Home | Current Version | Previous Version | Text Only | Print | Product List | Glossary Off
Versions: 1 2 3 4 5 6 7 8 9 10 11 12 13 14 15 16 17 18 19 20 21 22 23 24 25 26 27 28 29 30 31 32 33 34 35 36 37 38 39 40 41 42 43 44 45 46 47 48 49 50

000
ASUS41 KCTP 030210
RWRCTP

REGIONAL WEATHER ROUNDUP
NATIONAL WEATHER SERVICE STATE COLLEGE PA
1000 PM EDT SUN AUG 02 2015

Note: "fair" indicates few or no clouds below 12,000 feet with no
significant weather and/or obstructions to visibility.

* = STATION THAT DOES NOT REPORT PRECIPITATION /E.G. RAIN...SNOW...ETC/
    THUNDER OR FOG.

PAZ002>004-007>009-013>016-020>023-029>032-030300-
WESTERN PENNSYLVANIA

CITY           SKY/WX    TMP DP  RH WIND       PRES   REMARKS
ERIE           MOCLDY    81  62  52 S21G28    29.74F
MEADVILLE      PTCLDY    77  61  57 S9G22     29.84F
FRANKLIN*      PTCLDY    73  59  60 S12G20    29.88F
NEW CASTLE     FAIR      76  64  66 CALM      29.87F
BEAVER COUNTY  NOT AVBL
BUTLER*        CLEAR     75  61  60 SW7       29.91S
PITTSBURGH INT PTCLDY    78  61  55 S8        29.90R
PITTSBURGH     CLEAR     76  57  51 SW10      29.92R
INDIANA*       PTCLDY    73  63  68 SW7       29.95R
LATROBE        CLEAR     72  63  73 SW6       29.93R
WASHINGTON CO* NOT AVBL
$$

PAZ004>006-010>012-017>019-024>028-033>037-041-042-045-046-049>053-030300-
CENTRAL PENNSYLVANIA

CITY           SKY/WX    TMP DP  RH WIND       PRES   REMARKS
BRADFORD       CLEAR     72  59  63 S6        29.89S
DUBOIS         CLEAR     74  61  63 SW8       29.90S
CLEARFIELD     CLEAR     72  62  71 SW6       29.91R
JOHNSTOWN      CLEAR     71  58  63 SW9       29.97R
ALTOONA        CLEAR     70  60  70 S7        29.94R
STATE COLLEGE  NOT AVBL
WILLIAMSPORT   CLEAR     77  61  57 CALM      29.84R
SELINSGROVE    CLEAR     68  64  87 SW5       29.88R
FT INDIANTOWN  CLEAR     68  62  80 N2        29.89S
CAPITAL CITY   CLEAR     79  59  50 SW8       29.88S
HARRISBURG     PTCLDY    79  61  53 SW9       29.88R
YORK           CLEAR     74  60  61 S5        29.90S
$$

PAZ038>040-043-044-047-048-054-055-060>062-067>071-030300-
EASTERN PENNSYLVANIA

CITY           SKY/WX    TMP DP  RH WIND       PRES   REMARKS
SCRANTON       CLEAR     77  57  50 VRB5      29.88S
MOUNT POCONO   CLEAR     68  58  70 W3        29.94F
ALLENTOWN      CLEAR     75  59  57 SW6       29.88F
QUAKERTOWN*    CLEAR     70  63  78 CALM      29.91F
READING        CLEAR     74  60  61 S3        29.87F
LANCASTER      CLEAR     75  61  61 S6        29.89F
COATESVILLE    CLEAR     72  63  73 CALM      29.92F
POTTSTOWN      CLEAR     74  61  63 S3        29.91F
BLUE BELL      CLEAR     68  64  88 CALM      29.89F
DOYLESTOWN     CLEAR     71  58  63 S5        29.89F
WILLOW GROVE   NOT AVBL
NORTH PHILA    CLEAR     79  55  43 CALM      29.91S
PHILADELPHIA   PTCLDY    82  58  43 SW9       29.90F
$$


USA.gov is the U.S. government's official web portal to all federal, state and local government web resources and services.